Year,Month,Day,Hour,Minute,Value (Times are PST for temperature in C)
2014,07,13,00,00,20.20
2014,07,13,00,01,20.20
2014,07,13,00,02,20.20
2014,07,13,00,03,20.20
2014,07,13,00,04,20.10
2014,07,13,00,05,20.10
2014,07,13,00,06,20.10
2014,07,13,00,07,20.10
2014,07,13,00,08,20.10
2014,07,13,00,09,20.10
2014,07,13,00,10,20.10
2014,07,13,00,11,20.10
2014,07,13,00,12,20.00
2014,07,13,00,13,20.00
2014,07,13,00,14,20.00
2014,07,13,00,15,19.90
2014,07,13,00,16,19.90
2014,07,13,00,17,19.90
2014,07,13,00,18,19.90
2014,07,13,00,19,20.00
2014,07,13,00,20,20.00
2014,07,13,00,21,20.00
2014,07,13,00,22,19.90
2014,07,13,00,23,19.90
2014,07,13,00,24,19.80
2014,07,13,00,25,19.80
2014,07,13,00,26,19.70
2014,07,13,00,27,19.70
2014,07,13,00,28,19.60
2014,07,13,00,29,19.60
2014,07,13,00,30,19.60
2014,07,13,00,31,19.50
2014,07,13,00,32,19.50
2014,07,13,00,33,19.50
2014,07,13,00,34,19.50
2014,07,13,00,35,19.50
2014,07,13,00,36,19.50
2014,07,13,00,37,19.50
2014,07,13,00,38,19.50
2014,07,13,00,39,19.50
2014,07,13,00,40,19.50
2014,07,13,00,41,19.50
2014,07,13,00,42,19.50
2014,07,13,00,43,19.50
2014,07,13,00,44,19.50
2014,07,13,00,45,19.60
2014,07,13,00,46,19.70
2014,07,13,00,47,19.70
2014,07,13,00,48,19.70
2014,07,13,00,49,19.60
2014,07,13,00,50,19.60
2014,07,13,00,51,19.50
2014,07,13,00,52,19.40
2014,07,13,00,53,19.30
2014,07,13,00,54,19.30
2014,07,13,00,55,19.20
2014,07,13,00,56,19.10
2014,07,13,00,57,19.10
2014,07,13,00,58,19.00
2014,07,13,00,59,19.00
2014,07,13,01,00,18.90
2014,07,13,01,01,18.90
2014,07,13,01,02,18.80
2014,07,13,01,03,18.80
2014,07,13,01,04,18.90
2014,07,13,01,05,19.00
2014,07,13,01,06,19.00
2014,07,13,01,07,19.10
2014,07,13,01,08,19.10
2014,07,13,01,09,19.10
2014,07,13,01,10,19.20
2014,07,13,01,11,19.20
2014,07,13,01,12,19.20
2014,07,13,01,13,19.20
2014,07,13,01,14,19.30
2014,07,13,01,15,19.30
2014,07,13,01,16,19.40
2014,07,13,01,17,19.40
2014,07,13,01,18,19.50
2014,07,13,01,19,19.50
2014,07,13,01,20,19.60
2014,07,13,01,21,19.60
2014,07,13,01,22,19.50
2014,07,13,01,23,19.40
2014,07,13,01,24,19.30
2014,07,13,01,25,19.20
2014,07,13,01,26,19.10
2014,07,13,01,27,19.00
2014,07,13,01,28,19.00
2014,07,13,01,29,18.90
2014,07,13,01,30,18.80
2014,07,13,01,31,18.80
2014,07,13,01,32,18.70
2014,07,13,01,33,18.60
2014,07,13,01,34,18.60
2014,07,13,01,35,18.60
2014,07,13,01,36,18.60
2014,07,13,01,37,18.60
2014,07,13,01,38,18.70
2014,07,13,01,39,18.70
2014,07,13,01,40,18.70
2014,07,13,01,41,18.70
2014,07,13,01,42,18.70
2014,07,13,01,43,18.70
2014,07,13,01,44,18.70
2014,07,13,01,45,18.70
2014,07,13,01,46,18.80
2014,07,13,01,47,18.80
2014,07,13,01,48,18.80
2014,07,13,01,49,18.70
2014,07,13,01,50,18.70
2014,07,13,01,51,18.70
2014,07,13,01,52,18.70
2014,07,13,01,53,18.60
2014,07,13,01,54,18.60
2014,07,13,01,55,18.60
2014,07,13,01,56,18.60
2014,07,13,01,57,18.60
2014,07,13,01,58,18.70
2014,07,13,01,59,18.70
2014,07,13,02,00,18.70
2014,07,13,02,01,18.70
2014,07,13,02,02,18.70
2014,07,13,02,03,18.60
2014,07,13,02,04,18.60
2014,07,13,02,05,18.60
2014,07,13,02,06,18.70
2014,07,13,02,07,18.70
2014,07,13,02,08,18.80
2014,07,13,02,09,18.80
2014,07,13,02,10,18.70
2014,07,13,02,11,18.50
2014,07,13,02,12,18.50
2014,07,13,02,13,18.50
2014,07,13,02,14,18.50
2014,07,13,02,15,18.50
2014,07,13,02,16,18.50
2014,07,13,02,17,18.40
2014,07,13,02,18,18.30
2014,07,13,02,19,18.40
2014,07,13,02,20,18.40
2014,07,13,02,21,18.40
2014,07,13,02,22,18.30
2014,07,13,02,23,18.30
2014,07,13,02,24,18.30
2014,07,13,02,25,18.40
2014,07,13,02,26,18.40
2014,07,13,02,27,18.40
2014,07,13,02,28,18.40
2014,07,13,02,29,18.40
2014,07,13,02,30,18.30
2014,07,13,02,31,18.30
2014,07,13,02,32,18.30
2014,07,13,02,33,18.30
2014,07,13,02,34,18.30
2014,07,13,02,35,18.30
2014,07,13,02,36,18.30
2014,07,13,02,37,18.20
2014,07,13,02,38,18.20
2014,07,13,02,39,18.20
2014,07,13,02,40,18.20
2014,07,13,02,41,18.20
2014,07,13,02,42,18.20
2014,07,13,02,43,18.20
2014,07,13,02,44,18.10
2014,07,13,02,45,18.10
2014,07,13,02,46,18.10
2014,07,13,02,47,18.10
2014,07,13,02,48,18.10
2014,07,13,02,49,18.10
2014,07,13,02,50,18.20
2014,07,13,02,51,18.20
2014,07,13,02,52,18.30
2014,07,13,02,53,18.40
2014,07,13,02,54,18.40
2014,07,13,02,55,18.40
2014,07,13,02,56,18.50
2014,07,13,02,57,18.50
2014,07,13,02,58,18.40
2014,07,13,02,59,18.40
2014,07,13,03,00,18.50
2014,07,13,03,01,18.60
2014,07,13,03,02,18.70
2014,07,13,03,03,18.80
2014,07,13,03,04,18.80
2014,07,13,03,05,18.80
2014,07,13,03,06,18.80
2014,07,13,03,07,18.80
2014,07,13,03,08,18.80
2014,07,13,03,09,18.80
2014,07,13,03,10,18.70
2014,07,13,03,11,18.70
2014,07,13,03,12,18.70
2014,07,13,03,13,18.70
2014,07,13,03,14,18.70
2014,07,13,03,15,18.70
2014,07,13,03,16,18.70
2014,07,13,03,17,18.70
2014,07,13,03,18,18.70
2014,07,13,03,19,18.80
2014,07,13,03,20,18.80
2014,07,13,03,21,18.70
2014,07,13,03,22,18.70
2014,07,13,03,23,18.60
2014,07,13,03,24,18.60
2014,07,13,03,25,18.60
2014,07,13,03,26,18.50
2014,07,13,03,27,18.50
2014,07,13,03,28,18.50
2014,07,13,03,29,18.50
2014,07,13,03,30,18.50
2014,07,13,03,31,18.40
2014,07,13,03,32,18.40
2014,07,13,03,33,18.40
2014,07,13,03,34,18.40
2014,07,13,03,35,18.40
2014,07,13,03,36,18.30
2014,07,13,03,37,18.30
2014,07,13,03,38,18.30
2014,07,13,03,39,18.20
2014,07,13,03,40,18.20
2014,07,13,03,41,18.10
2014,07,13,03,42,18.10
2014,07,13,03,43,18.10
2014,07,13,03,44,18.10
2014,07,13,03,45,18.10
2014,07,13,03,46,18.10
2014,07,13,03,47,18.00
2014,07,13,03,48,18.00
2014,07,13,03,49,18.00
2014,07,13,03,50,17.90
2014,07,13,03,51,17.90
2014,07,13,03,52,17.80
2014,07,13,03,53,17.80
2014,07,13,03,54,17.80
2014,07,13,03,55,17.80
2014,07,13,03,56,17.70
2014,07,13,03,57,17.70
2014,07,13,03,58,17.70
2014,07,13,03,59,17.70
2014,07,13,04,00,17.70
2014,07,13,04,01,17.70
2014,07,13,04,02,17.70
2014,07,13,04,03,17.70
2014,07,13,04,04,17.70
2014,07,13,04,05,17.70
2014,07,13,04,06,17.70
2014,07,13,04,07,17.60
2014,07,13,04,08,17.60
2014,07,13,04,09,17.50
2014,07,13,04,10,17.50
2014,07,13,04,11,17.40
2014,07,13,04,12,17.40
2014,07,13,04,13,17.40
2014,07,13,04,14,17.50
2014,07,13,04,15,17.50
2014,07,13,04,16,17.50
2014,07,13,04,17,17.50
2014,07,13,04,18,17.60
2014,07,13,04,19,17.60
2014,07,13,04,20,17.60
2014,07,13,04,21,17.60
2014,07,13,04,22,17.60
2014,07,13,04,23,17.70
2014,07,13,04,24,17.70
2014,07,13,04,25,17.70
2014,07,13,04,26,17.70
2014,07,13,04,27,17.70
2014,07,13,04,28,17.60
2014,07,13,04,29,17.50
2014,07,13,04,30,17.40
2014,07,13,04,31,17.40
2014,07,13,04,32,17.30
2014,07,13,04,33,17.30
2014,07,13,04,34,17.20
2014,07,13,04,35,17.20
2014,07,13,04,36,17.20
2014,07,13,04,37,17.20
2014,07,13,04,38,17.20
2014,07,13,04,39,17.20
2014,07,13,04,40,17.20
2014,07,13,04,41,17.20
2014,07,13,04,42,17.10
2014,07,13,04,43,17.10
2014,07,13,04,44,17.10
2014,07,13,04,45,17.10
2014,07,13,04,46,17.10
2014,07,13,04,47,17.10
2014,07,13,04,48,17.00
2014,07,13,04,49,17.00
2014,07,13,04,50,17.00
2014,07,13,04,51,17.00
2014,07,13,04,52,17.00
2014,07,13,04,53,17.00
2014,07,13,04,54,16.90
2014,07,13,04,55,16.90
2014,07,13,04,56,16.90
2014,07,13,04,57,16.80
2014,07,13,04,58,16.80
2014,07,13,04,59,16.80
2014,07,13,05,00,16.80
2014,07,13,05,01,16.70
2014,07,13,05,02,16.70
2014,07,13,05,03,16.70
2014,07,13,05,04,16.60
2014,07,13,05,05,16.60
2014,07,13,05,06,16.70
2014,07,13,05,07,16.70
2014,07,13,05,08,16.70
2014,07,13,05,09,16.70
2014,07,13,05,10,16.70
2014,07,13,05,11,16.70
2014,07,13,05,12,16.70
2014,07,13,05,13,16.70
2014,07,13,05,14,16.70
2014,07,13,05,15,16.70
2014,07,13,05,16,16.60
2014,07,13,05,17,16.50
2014,07,13,05,18,16.50
2014,07,13,05,19,16.50
2014,07,13,05,20,16.50
2014,07,13,05,21,16.50
2014,07,13,05,22,16.50
2014,07,13,05,23,16.50
2014,07,13,05,24,16.40
2014,07,13,05,25,16.40
2014,07,13,05,26,16.40
2014,07,13,05,27,16.40
2014,07,13,05,28,16.50
2014,07,13,05,29,16.60
2014,07,13,05,30,16.60
2014,07,13,05,31,16.70
2014,07,13,05,32,16.70
2014,07,13,05,33,16.70
2014,07,13,05,34,16.80
2014,07,13,05,35,16.80
2014,07,13,05,36,16.80
2014,07,13,05,37,16.70
2014,07,13,05,38,16.70
2014,07,13,05,39,16.70
2014,07,13,05,40,16.70
2014,07,13,05,41,16.70
2014,07,13,05,42,16.70
2014,07,13,05,43,16.70
2014,07,13,05,44,16.70
2014,07,13,05,45,16.70
2014,07,13,05,46,16.70
2014,07,13,05,47,16.70
2014,07,13,05,48,16.70
2014,07,13,05,49,16.70
2014,07,13,05,50,16.60
2014,07,13,05,51,16.50
2014,07,13,05,52,16.40
2014,07,13,05,53,16.40
2014,07,13,05,54,16.30
2014,07,13,05,55,16.30
2014,07,13,05,56,16.30
2014,07,13,05,57,16.30
2014,07,13,05,58,16.30
2014,07,13,05,59,16.30
2014,07,13,06,00,16.40
2014,07,13,06,01,16.50
2014,07,13,06,02,16.50
2014,07,13,06,03,16.60
2014,07,13,06,04,16.70
2014,07,13,06,05,16.70
2014,07,13,06,06,16.70
2014,07,13,06,07,16.70
2014,07,13,06,08,16.70
2014,07,13,06,09,16.70
2014,07,13,06,10,16.70
2014,07,13,06,11,16.60
2014,07,13,06,12,16.60
2014,07,13,06,13,16.60
2014,07,13,06,14,16.60
2014,07,13,06,15,16.60
2014,07,13,06,16,16.60
2014,07,13,06,17,16.60
2014,07,13,06,18,16.60
2014,07,13,06,19,16.60
2014,07,13,06,20,16.50
2014,07,13,06,21,16.50
2014,07,13,06,22,16.50
2014,07,13,06,23,16.60
2014,07,13,06,24,16.60
2014,07,13,06,25,16.60
2014,07,13,06,26,16.70
2014,07,13,06,27,16.70
2014,07,13,06,28,16.70
2014,07,13,06,29,16.70
2014,07,13,06,30,16.70
2014,07,13,06,31,16.70
2014,07,13,06,32,16.70
2014,07,13,06,33,16.70
2014,07,13,06,34,16.80
2014,07,13,06,35,16.80
2014,07,13,06,36,16.80
2014,07,13,06,37,16.80
2014,07,13,06,38,16.90
2014,07,13,06,39,16.90
2014,07,13,06,40,16.90
2014,07,13,06,41,16.90
2014,07,13,06,42,17.00
2014,07,13,06,43,17.00
2014,07,13,06,44,17.10
2014,07,13,06,45,17.10
2014,07,13,06,46,17.20
2014,07,13,06,47,17.20
2014,07,13,06,48,17.30
2014,07,13,06,49,17.30
2014,07,13,06,50,17.40
2014,07,13,06,51,17.40
2014,07,13,06,52,17.40
2014,07,13,06,53,17.50
2014,07,13,06,54,17.50
2014,07,13,06,55,17.60
2014,07,13,06,56,17.60
2014,07,13,06,57,17.60
2014,07,13,06,58,17.70
2014,07,13,06,59,17.70
2014,07,13,07,00,17.80
2014,07,13,07,01,17.80
2014,07,13,07,02,17.90
2014,07,13,07,03,18.00
2014,07,13,07,04,18.00
2014,07,13,07,05,18.10
2014,07,13,07,06,18.10
2014,07,13,07,07,18.20
2014,07,13,07,08,18.20
2014,07,13,07,09,18.20
2014,07,13,07,10,18.30
2014,07,13,07,11,18.30
2014,07,13,07,12,18.40
2014,07,13,07,13,18.50
2014,07,13,07,14,18.60
2014,07,13,07,15,18.60
2014,07,13,07,16,18.70
2014,07,13,07,17,18.80
2014,07,13,07,18,18.80
2014,07,13,07,19,18.90
2014,07,13,07,20,19.00
2014,07,13,07,21,19.10
2014,07,13,07,22,19.20
2014,07,13,07,23,19.20
2014,07,13,07,24,19.30
2014,07,13,07,25,19.40
2014,07,13,07,26,19.50
2014,07,13,07,27,19.50
2014,07,13,07,28,19.60
2014,07,13,07,29,19.70
2014,07,13,07,30,19.80
2014,07,13,07,31,19.80
2014,07,13,07,32,19.90
2014,07,13,07,33,20.00
2014,07,13,07,34,20.20
2014,07,13,07,35,20.30
2014,07,13,07,36,20.40
2014,07,13,07,37,20.50
2014,07,13,07,38,20.60
2014,07,13,07,39,20.70
2014,07,13,07,40,20.70
2014,07,13,07,41,20.80
2014,07,13,07,42,20.90
2014,07,13,07,43,21.00
2014,07,13,07,44,21.00
2014,07,13,07,45,21.10
2014,07,13,07,46,21.10
2014,07,13,07,47,21.20
2014,07,13,07,48,21.20
2014,07,13,07,49,21.30
2014,07,13,07,50,21.30
2014,07,13,07,51,21.30
2014,07,13,07,52,21.30
2014,07,13,07,53,21.30
2014,07,13,07,54,21.30
2014,07,13,07,55,21.30
2014,07,13,07,56,21.30
2014,07,13,07,57,21.30
2014,07,13,07,58,21.30
2014,07,13,07,59,21.30
2014,07,13,08,00,21.40
2014,07,13,08,01,21.40
2014,07,13,08,02,21.50
2014,07,13,08,03,21.60
2014,07,13,08,04,21.70
2014,07,13,08,05,21.70
2014,07,13,08,06,21.80
2014,07,13,08,07,21.90
2014,07,13,08,08,21.90
2014,07,13,08,09,21.90
2014,07,13,08,10,22.00
2014,07,13,08,11,22.00
2014,07,13,08,12,22.10
2014,07,13,08,13,22.10
2014,07,13,08,14,22.20
2014,07,13,08,15,22.30
2014,07,13,08,16,22.30
2014,07,13,08,17,22.30
2014,07,13,08,18,22.40
2014,07,13,08,19,22.40
2014,07,13,08,20,22.50
2014,07,13,08,21,22.50
2014,07,13,08,22,22.60
2014,07,13,08,23,22.60
2014,07,13,08,24,22.70
2014,07,13,08,25,22.80
2014,07,13,08,26,22.80
2014,07,13,08,27,22.80
2014,07,13,08,28,22.80
2014,07,13,08,29,22.80
2014,07,13,08,30,22.80
2014,07,13,08,31,22.80
2014,07,13,08,32,22.80
2014,07,13,08,33,22.80
2014,07,13,08,34,22.80
2014,07,13,08,35,22.80
2014,07,13,08,36,22.90
2014,07,13,08,37,22.90
2014,07,13,08,38,22.90
2014,07,13,08,39,22.90
2014,07,13,08,40,22.90
2014,07,13,08,41,22.90
2014,07,13,08,42,22.90
2014,07,13,08,43,22.90
2014,07,13,08,44,22.90
2014,07,13,08,45,22.90
2014,07,13,08,46,23.00
2014,07,13,08,47,23.10
2014,07,13,08,48,23.10
2014,07,13,08,49,23.10
2014,07,13,08,50,23.20
2014,07,13,08,51,23.30
2014,07,13,08,52,23.30
2014,07,13,08,53,23.40
2014,07,13,08,54,23.40
2014,07,13,08,55,23.40
2014,07,13,08,56,23.40
2014,07,13,08,57,23.40
2014,07,13,08,58,23.40
2014,07,13,08,59,23.40
2014,07,13,09,00,23.50
2014,07,13,09,01,23.60
2014,07,13,09,02,23.60
2014,07,13,09,03,23.60
2014,07,13,09,04,23.70
2014,07,13,09,05,23.70
2014,07,13,09,06,23.70
2014,07,13,09,07,23.80
2014,07,13,09,08,23.90
2014,07,13,09,09,23.90
2014,07,13,09,10,24.00
2014,07,13,09,11,24.10
2014,07,13,09,12,24.10
2014,07,13,09,13,24.20
2014,07,13,09,14,24.20
2014,07,13,09,15,24.20
2014,07,13,09,16,24.20
2014,07,13,09,17,24.20
2014,07,13,09,18,24.20
2014,07,13,09,19,24.20
2014,07,13,09,20,24.10
2014,07,13,09,21,24.10
2014,07,13,09,22,24.10
2014,07,13,09,23,24.10
2014,07,13,09,24,24.10
2014,07,13,09,25,24.20
2014,07,13,09,26,24.20
2014,07,13,09,27,24.20
2014,07,13,09,28,24.20
2014,07,13,09,29,24.20
2014,07,13,09,30,24.30
2014,07,13,09,31,24.30
2014,07,13,09,32,24.30
2014,07,13,09,33,24.30
2014,07,13,09,34,24.40
2014,07,13,09,35,24.40
2014,07,13,09,36,24.40
2014,07,13,09,37,24.40
2014,07,13,09,38,24.50
2014,07,13,09,39,24.50
2014,07,13,09,40,24.60
2014,07,13,09,41,24.70
2014,07,13,09,42,24.80
2014,07,13,09,43,24.90
2014,07,13,09,44,25.00
2014,07,13,09,45,25.10
2014,07,13,09,46,25.10
2014,07,13,09,47,25.20
2014,07,13,09,48,25.20
2014,07,13,09,49,25.20
2014,07,13,09,50,25.30
2014,07,13,09,51,25.30
2014,07,13,09,52,25.30
2014,07,13,09,53,25.30
2014,07,13,09,54,25.30
2014,07,13,09,55,25.30
2014,07,13,09,56,25.30
2014,07,13,09,57,25.30
2014,07,13,09,58,25.40
2014,07,13,09,59,25.40
2014,07,13,10,00,25.50
2014,07,13,10,01,25.60
2014,07,13,10,02,25.70
2014,07,13,10,03,25.80
2014,07,13,10,04,25.90
2014,07,13,10,05,26.00
2014,07,13,10,06,26.10
2014,07,13,10,07,26.10
2014,07,13,10,08,26.10
2014,07,13,10,09,26.00
2014,07,13,10,10,26.10
2014,07,13,10,11,26.20
2014,07,13,10,12,26.20
2014,07,13,10,13,26.20
2014,07,13,10,14,26.20
2014,07,13,10,15,26.30
2014,07,13,10,16,26.30
2014,07,13,10,17,26.30
2014,07,13,10,18,26.30
2014,07,13,10,19,26.30
2014,07,13,10,20,26.30
2014,07,13,10,21,26.30
2014,07,13,10,22,26.30
2014,07,13,10,23,26.40
2014,07,13,10,24,26.40
2014,07,13,10,25,26.40
2014,07,13,10,26,26.40
2014,07,13,10,27,26.40
2014,07,13,10,28,26.40
2014,07,13,10,29,26.50
2014,07,13,10,30,26.50
2014,07,13,10,31,26.50
2014,07,13,10,32,26.40
2014,07,13,10,33,26.30
2014,07,13,10,34,26.20
2014,07,13,10,35,26.20
2014,07,13,10,36,26.20
2014,07,13,10,37,26.20
2014,07,13,10,38,26.20
2014,07,13,10,39,26.20
2014,07,13,10,40,26.30
2014,07,13,10,41,26.40
2014,07,13,10,42,26.50
2014,07,13,10,43,26.60
2014,07,13,10,44,26.70
2014,07,13,10,45,26.80
2014,07,13,10,46,26.90
2014,07,13,10,47,27.00
2014,07,13,10,48,27.00
2014,07,13,10,49,27.10
2014,07,13,10,50,27.10
2014,07,13,10,51,27.10
2014,07,13,10,52,27.20
2014,07,13,10,53,27.30
2014,07,13,10,54,27.30
2014,07,13,10,55,27.40
2014,07,13,10,56,27.40
2014,07,13,10,57,27.30
2014,07,13,10,58,27.30
2014,07,13,10,59,27.30
2014,07,13,11,00,27.20
2014,07,13,11,01,27.20
2014,07,13,11,02,27.20
2014,07,13,11,03,27.30
2014,07,13,11,04,27.30
2014,07,13,11,05,27.30
2014,07,13,11,06,27.30
2014,07,13,11,07,27.30
2014,07,13,11,08,27.30
2014,07,13,11,09,27.30
2014,07,13,11,10,27.30
2014,07,13,11,11,27.30
2014,07,13,11,12,27.30
2014,07,13,11,13,27.40
2014,07,13,11,14,27.40
2014,07,13,11,15,27.40
2014,07,13,11,16,27.40
2014,07,13,11,17,27.40
2014,07,13,11,18,27.40
2014,07,13,11,19,27.40
2014,07,13,11,20,27.50
2014,07,13,11,21,27.50
2014,07,13,11,22,27.60
2014,07,13,11,23,27.60
2014,07,13,11,24,27.60
2014,07,13,11,25,27.60
2014,07,13,11,26,27.70
2014,07,13,11,27,27.80
2014,07,13,11,28,27.80
2014,07,13,11,29,27.90
2014,07,13,11,30,27.90
2014,07,13,11,31,27.90
2014,07,13,11,32,28.00
2014,07,13,11,33,28.00
2014,07,13,11,34,28.10
2014,07,13,11,35,28.20
2014,07,13,11,36,28.20
2014,07,13,11,37,28.10
2014,07,13,11,38,28.00
2014,07,13,11,39,27.90
2014,07,13,11,40,27.90
2014,07,13,11,41,27.90
2014,07,13,11,42,28.00
2014,07,13,11,43,28.10
2014,07,13,11,44,28.20
2014,07,13,11,45,28.20
2014,07,13,11,46,28.20
2014,07,13,11,47,28.20
2014,07,13,11,48,28.10
2014,07,13,11,49,28.10
2014,07,13,11,50,28.20
2014,07,13,11,51,28.20
2014,07,13,11,52,28.30
2014,07,13,11,53,28.30
2014,07,13,11,54,28.40
2014,07,13,11,55,28.40
2014,07,13,11,56,28.40
2014,07,13,11,57,28.40
2014,07,13,11,58,28.50
2014,07,13,11,59,28.50
2014,07,13,12,00,28.60
2014,07,13,12,01,28.60
2014,07,13,12,02,28.60
2014,07,13,12,03,28.70
2014,07,13,12,04,28.70
2014,07,13,12,05,28.70
2014,07,13,12,06,28.70
2014,07,13,12,07,28.60
2014,07,13,12,08,28.60
2014,07,13,12,09,28.50
2014,07,13,12,10,28.40
2014,07,13,12,11,28.40
2014,07,13,12,12,28.40
2014,07,13,12,13,28.50
2014,07,13,12,14,28.50
2014,07,13,12,15,28.50
2014,07,13,12,16,28.60
2014,07,13,12,17,28.60
2014,07,13,12,18,28.60
2014,07,13,12,19,28.70
2014,07,13,12,20,28.70
2014,07,13,12,21,28.70
2014,07,13,12,22,28.70
2014,07,13,12,23,28.70
2014,07,13,12,24,28.70
2014,07,13,12,25,28.80
2014,07,13,12,26,28.80
2014,07,13,12,27,28.90
2014,07,13,12,28,28.90
2014,07,13,12,29,29.00
2014,07,13,12,30,29.10
2014,07,13,12,31,29.10
2014,07,13,12,32,29.10
2014,07,13,12,33,29.10
2014,07,13,12,34,29.10
2014,07,13,12,35,29.10
2014,07,13,12,36,29.20
2014,07,13,12,37,29.20
2014,07,13,12,38,29.20
2014,07,13,12,39,29.20
2014,07,13,12,40,29.20
2014,07,13,12,41,29.30
2014,07,13,12,42,29.30
2014,07,13,12,43,29.30
2014,07,13,12,44,29.30
2014,07,13,12,45,29.30
2014,07,13,12,46,29.30
2014,07,13,12,47,29.30
2014,07,13,12,48,29.30
2014,07,13,12,49,29.30
2014,07,13,12,50,29.20
2014,07,13,12,51,29.20
2014,07,13,12,52,29.10
2014,07,13,12,53,29.00
2014,07,13,12,54,28.90
2014,07,13,12,55,28.80
2014,07,13,12,56,28.80
2014,07,13,12,57,28.80
2014,07,13,12,58,28.90
2014,07,13,12,59,28.90
2014,07,13,13,00,28.90
2014,07,13,13,01,28.90
2014,07,13,13,02,28.90
2014,07,13,13,03,28.90
2014,07,13,13,04,28.90
2014,07,13,13,05,29.00
2014,07,13,13,06,29.10
2014,07,13,13,07,29.10
2014,07,13,13,08,29.20
2014,07,13,13,09,29.20
2014,07,13,13,10,29.20
2014,07,13,13,11,29.10
2014,07,13,13,12,29.10
2014,07,13,13,13,29.00
2014,07,13,13,14,28.90
2014,07,13,13,15,28.80
2014,07,13,13,16,28.80
2014,07,13,13,17,28.80
2014,07,13,13,18,28.70
2014,07,13,13,19,28.80
2014,07,13,13,20,28.80
2014,07,13,13,21,28.80
2014,07,13,13,22,28.90
2014,07,13,13,23,28.90
2014,07,13,13,24,29.00
2014,07,13,13,25,29.00
2014,07,13,13,26,29.00
2014,07,13,13,27,29.00
2014,07,13,13,28,29.00
2014,07,13,13,29,29.10
2014,07,13,13,30,29.10
2014,07,13,13,31,29.10
2014,07,13,13,32,29.20
2014,07,13,13,33,29.30
2014,07,13,13,34,29.30
2014,07,13,13,35,29.30
2014,07,13,13,36,29.40
2014,07,13,13,37,29.40
2014,07,13,13,38,29.40
2014,07,13,13,39,29.50
2014,07,13,13,40,29.50
2014,07,13,13,41,29.60
2014,07,13,13,42,29.60
2014,07,13,13,43,29.60
2014,07,13,13,44,29.60
2014,07,13,13,45,29.50
2014,07,13,13,46,29.50
2014,07,13,13,47,29.60
2014,07,13,13,48,29.70
2014,07,13,13,49,29.80
2014,07,13,13,50,29.80
2014,07,13,13,51,29.80
2014,07,13,13,52,29.80
2014,07,13,13,53,29.80
2014,07,13,13,54,29.90
2014,07,13,13,55,30.00
2014,07,13,13,56,30.00
2014,07,13,13,57,30.10
2014,07,13,13,58,30.20
2014,07,13,13,59,30.40
2014,07,13,14,00,30.50
2014,07,13,14,01,30.60
2014,07,13,14,02,30.60
2014,07,13,14,03,30.70
2014,07,13,14,04,30.80
2014,07,13,14,05,30.80
2014,07,13,14,06,30.90
2014,07,13,14,07,30.90
2014,07,13,14,08,30.90
2014,07,13,14,09,30.80
2014,07,13,14,10,30.80
2014,07,13,14,11,30.90
2014,07,13,14,12,31.00
2014,07,13,14,13,31.10
2014,07,13,14,14,31.10
2014,07,13,14,15,31.10
2014,07,13,14,16,31.10
2014,07,13,14,17,31.10
2014,07,13,14,18,31.10
2014,07,13,14,19,31.20
2014,07,13,14,20,31.20
2014,07,13,14,21,31.20
2014,07,13,14,22,31.30
2014,07,13,14,23,31.40
2014,07,13,14,24,31.40
2014,07,13,14,25,31.30
2014,07,13,14,26,31.30
2014,07,13,14,27,31.30
2014,07,13,14,28,31.30
2014,07,13,14,29,31.30
2014,07,13,14,30,31.30
2014,07,13,14,31,31.30
2014,07,13,14,32,31.30
2014,07,13,14,33,31.30
2014,07,13,14,34,31.40
2014,07,13,14,35,31.40
2014,07,13,14,36,31.40
2014,07,13,14,37,31.40
2014,07,13,14,38,31.40
2014,07,13,14,39,31.40
2014,07,13,14,40,31.40
2014,07,13,14,41,31.40
2014,07,13,14,42,31.40
2014,07,13,14,43,31.40
2014,07,13,14,44,31.30
2014,07,13,14,45,31.30
2014,07,13,14,46,31.20
2014,07,13,14,47,31.10
2014,07,13,14,48,31.10
2014,07,13,14,49,31.20
2014,07,13,14,50,31.20
2014,07,13,14,51,31.30
2014,07,13,14,52,31.30
2014,07,13,14,53,31.40
2014,07,13,14,54,31.40
2014,07,13,14,55,31.30
2014,07,13,14,56,31.30
2014,07,13,14,57,31.30
2014,07,13,14,58,31.30
2014,07,13,14,59,31.40
2014,07,13,15,00,31.40
2014,07,13,15,01,31.50
2014,07,13,15,02,31.50
2014,07,13,15,03,31.50
2014,07,13,15,04,31.60
2014,07,13,15,05,31.60
2014,07,13,15,06,31.70
2014,07,13,15,07,31.70
2014,07,13,15,08,31.70
2014,07,13,15,09,31.70
2014,07,13,15,10,31.80
2014,07,13,15,11,31.90
2014,07,13,15,12,32.00
2014,07,13,15,13,32.10
2014,07,13,15,14,32.10
2014,07,13,15,15,32.20
2014,07,13,15,16,32.30
2014,07,13,15,17,32.40
2014,07,13,15,18,32.30
2014,07,13,15,19,32.30
2014,07,13,15,20,32.20
2014,07,13,15,21,32.20
2014,07,13,15,22,32.10
2014,07,13,15,23,32.00
2014,07,13,15,24,32.00
2014,07,13,15,25,32.10
2014,07,13,15,26,32.20
2014,07,13,15,27,32.30
2014,07,13,15,28,32.40
2014,07,13,15,29,32.40
2014,07,13,15,30,32.40
2014,07,13,15,31,32.40
2014,07,13,15,32,32.40
2014,07,13,15,33,32.40
2014,07,13,15,34,32.30
2014,07,13,15,35,32.30
2014,07,13,15,36,32.30
2014,07,13,15,37,32.40
2014,07,13,15,38,32.40
2014,07,13,15,39,32.50
2014,07,13,15,40,32.60
2014,07,13,15,41,32.60
2014,07,13,15,42,32.60
2014,07,13,15,43,32.70
2014,07,13,15,44,32.60
2014,07,13,15,45,32.70
2014,07,13,15,46,32.70
2014,07,13,15,47,32.70
2014,07,13,15,48,32.70
2014,07,13,15,49,32.70
2014,07,13,15,50,32.70
2014,07,13,15,51,32.70
2014,07,13,15,52,32.70
2014,07,13,15,53,32.80
2014,07,13,15,54,32.80
2014,07,13,15,55,32.80
2014,07,13,15,56,32.90
2014,07,13,15,57,32.90
2014,07,13,15,58,32.90
2014,07,13,15,59,32.90
2014,07,13,16,00,32.90
2014,07,13,16,01,32.90
2014,07,13,16,02,32.80
2014,07,13,16,03,32.80
2014,07,13,16,04,32.80
2014,07,13,16,05,32.70
2014,07,13,16,06,32.70
2014,07,13,16,07,32.70
2014,07,13,16,08,32.70
2014,07,13,16,09,32.70
2014,07,13,16,10,32.70
2014,07,13,16,11,32.70
2014,07,13,16,12,32.60
2014,07,13,16,13,32.60
2014,07,13,16,14,32.60
2014,07,13,16,15,32.60
2014,07,13,16,16,32.60
2014,07,13,16,17,32.60
2014,07,13,16,18,32.70
2014,07,13,16,19,32.70
2014,07,13,16,20,32.80
2014,07,13,16,21,32.80
2014,07,13,16,22,32.80
2014,07,13,16,23,32.90
2014,07,13,16,24,32.90
2014,07,13,16,25,33.00
2014,07,13,16,26,33.10
2014,07,13,16,27,33.20
2014,07,13,16,28,33.20
2014,07,13,16,29,33.20
2014,07,13,16,30,33.20
2014,07,13,16,31,33.20
2014,07,13,16,32,33.10
2014,07,13,16,33,33.00
2014,07,13,16,34,33.00
2014,07,13,16,35,32.90
2014,07,13,16,36,32.90
2014,07,13,16,37,32.90
2014,07,13,16,38,32.90
2014,07,13,16,39,32.80
2014,07,13,16,40,32.80
2014,07,13,16,41,32.80
2014,07,13,16,42,32.80
2014,07,13,16,43,32.80
2014,07,13,16,44,32.80
2014,07,13,16,45,32.90
2014,07,13,16,46,32.90
2014,07,13,16,47,33.00
2014,07,13,16,48,33.00
2014,07,13,16,49,32.90
2014,07,13,16,50,32.90
2014,07,13,16,51,32.90
2014,07,13,16,52,32.80
2014,07,13,16,53,32.80
2014,07,13,16,54,32.70
2014,07,13,16,55,32.60
2014,07,13,16,56,32.60
2014,07,13,16,57,32.60
2014,07,13,16,58,32.50
2014,07,13,16,59,32.50
2014,07,13,17,00,32.50
2014,07,13,17,01,32.60
2014,07,13,17,02,32.60
2014,07,13,17,03,32.70
2014,07,13,17,04,32.70
2014,07,13,17,05,32.80
2014,07,13,17,06,32.90
2014,07,13,17,07,33.00
2014,07,13,17,08,33.10
2014,07,13,17,09,33.20
2014,07,13,17,10,33.30
2014,07,13,17,11,33.30
2014,07,13,17,12,33.30
2014,07,13,17,13,33.40
2014,07,13,17,14,33.40
2014,07,13,17,15,33.50
2014,07,13,17,16,33.60
2014,07,13,17,17,33.60
2014,07,13,17,18,33.60
2014,07,13,17,19,33.50